Location: M?digepalle
(16.1753°N, 80.3496°E)
Time: 12:24:22
(UTC+00:00)

FALCON 9 R/B - Pass Details

Date: 29 October 2020
Orbit: 298 x 10118 km, 34.5° (Epoch: 23 November)

Event Time Altitude Azimuth Distance (km) Brightness Sun altitude
Rises 13:56:38 0° 245° (WSW) 1,982 5.3 -26.1°
Reaches altitude 10° 13:58:07 10° 249° (WSW) 1,257 4.1 -26.4°
Enters shadow 13:58:43 17° 252° (WSW) 978 3.4 -26.6°
